Location: Drummondville
(45.8830°N, 72.4830°W)
Time: 12:37:48
(UTC-05:00)

ISS - Pass Details

Date: 13 November 2017
Orbit: 401 x 407 km, 51.6° (Epoch: 18 November)

Event Time Altitude Azimuth Distance (km) Brightness Sun altitude
Exits shadow 05:13:32 37° 319° (NW) 638 -3.2 -16.4°
Maximum altitude 05:14:34 62° 23° (NNE) 458 -3.6 -16.2°
Drops below altitude 10° 05:17:48 10° 106° (ESE) 1,451 0.3 -15.7°
Sets 05:19:53 0° 110° (ESE) 2,308 1.8 -15.3°
